[[{"header":{"parameterUnit":"m.s-1","parameterCategory":1,"la1":30.2992,"la2":30.254,"lo1":-89.0895,"lo2":-89.0443,"dy":0.0025,"dx":0.0025,"nx":19,"ny":19,"refTime":"2026-04-17T09:00:00:Z","depth":0,"parameterNumber":2,"parameterNumberName":"U-component_of_WINDS"},"data":[0,0,0,-0.2262,-0.2259,-0.2103,-0.2102,-0.1928,-0.1927,0,0,0,0,0,0,0,0,0,0,0,-0.2326,-0.2325,-0.2262,-0.2259,-0.2103,-0.2102,-0.1928,-0.1927,0,0,0,0,0,0,0,0,0,0,0,-0.2326,-0.2325,-0.2325,-0.2258,-0.2103,-0.2102,-0.1929,-0.2037,0,0,0,0,0,0,0,0,0,0,-0.2184,-0.226,-0.2325,-0.2325,-0.2257,-0.2103,-0.2102,-0.2042,-0.203,-0.201,0,-0.1999,0,-0.1961,-0.1917,-0.1917,0,0,0,-0.2245,-0.227,-0.2212,-0.2324,-0.2256,-0.2104,-0.2169,-0.2035,-0.2022,-0.1995,-0.1997,-0.1989,-0.1958,-0.1916,-0.1915,-0.1852,-0.1852,0,0,-0.2254,-0.2307,-0.2221,-0.2205,-0.2233,-0.2175,-0.2165,-0.2027,-0.2031,-0.1996,-0.1985,-0.1955,-0.1915,-0.1914,-0.1851,-0.1852,0,0,0,-0.2288,-0.2313,-0.2258,-0.2213,-0.2183,-0.217,-0.2159,-0.2037,-0.2015,-0.1983,-0.1953,-0.1914,-0.1912,-0.1851,-0.1851,-0.1921,0,0,0,-0.2292,-0.2333,-0.2263,-0.2294,-0.2186,-0.2108,-0.2173,-0.2024,-0.2007,-0.1954,-0.1914,-0.1911,-0.185,-0.1851,-0.1918,-0.1944,0,0,0,-0.233,-0.2337,-0.2321,-0.2297,-0.2232,-0.2109,-0.2079,-0.2019,-0.1989,-0.1916,-0.1911,-0.185,-0.1851,-0.1915,-0.194,-0.1943,0,0,0,-0.2385,-0.2384,-0.2323,-0.231,-0.2234,-0.2154,-0.2079,-0.2016,-0.1962,-0.1914,-0.185,-0.1851,-0.1914,-0.1937,-0.1941,-0.1956,-0.1967,0,0,-0.2413,-0.2389,-0.2377,-0.2318,-0.2263,-0.2173,-0.2127,-0.2027,-0.197,-0.1894,-0.1891,-0.1919,-0.194,-0.1943,-0.2011,-0.2021,0,0,0,-0.2404,-0.2397,-0.237,-0.2322,-0.2246,-0.2182,-0.2083,-0.2045,-0.1978,-0.1943,-0.1919,-0.193,-0.1929,-0.1934,-0.1942,-0.1938,-0.1856,-0.1856,-0.1856,-0.2521,-0.245,-0.2425,-0.2335,-0.2289,-0.2186,-0.2141,-0.2073,-0.2014,-0.2009,-0.1986,-0.2037,-0.2044,-0.205,-0.2047,-0.1988,-0.1988,-0.1988,-0.1989,-0.2557,-0.2534,-0.2456,-0.2404,-0.2328,-0.2282,-0.2182,-0.2142,-0.2088,-0.2048,-0.2044,-0.2008,-0.2062,-0.2056,-0.1993,-0.1992,-0.1992,-0.1991,-0.1991,-0.2626,-0.2603,-0.2557,-0.2479,-0.2426,-0.2334,-0.2285,-0.2217,-0.2152,-0.2148,-0.2116,-0.2115,-0.2105,-0.2138,-0.2138,-0.2138,-0.2138,-0.2138,-0.2138,-0.2716,-0.2663,-0.2631,-0.255,-0.2509,-0.2446,-0.2342,-0.2299,-0.2234,-0.2188,-0.2188,-0.2129,-0.2081,-0.2071,-0.2141,-0.214,-0.214,-0.214,-0.214,-0.278,-0.2754,-0.2706,-0.2666,-0.2563,-0.2515,-0.2427,-0.2346,-0.2301,-0.2279,-0.222,-0.2196,-0.2166,-0.2159,-0.215,-0.2236,-0.2236,-0.2236,-0.2236,-0.2839,-0.2817,-0.2752,-0.2691,-0.2623,-0.2539,-0.2485,-0.2403,-0.2314,-0.2281,-0.2258,-0.224,-0.2237,-0.2209,-0.2201,-0.2191,-0.2286,-0.2286,-0.2286,-0.2875,-0.2843,-0.2811,-0.2724,-0.2639,-0.2566,-0.2513,-0.2444,-0.2338,-0.2286,-0.2254,-0.2252,-0.2222,-0.2216,-0.2165,-0.2155,-0.2136,0,0]},{"header":{"parameterUnit":"m.s-1","parameterCategory":1,"la1":30.2992,"la2":30.254,"lo1":-89.0895,"lo2":-89.0443,"dy":0.0025,"dx":0.0025,"nx":19,"ny":19,"refTime":"2026-04-17T09:00:00:Z","depth":0,"parameterNumber":3,"parameterNumberName":"V-component_of_WINDS"},"data":[0,0,0,4.6682,4.6683,4.6723,4.6723,4.677,4.6771,0,0,0,0,0,0,0,0,0,0,0,4.667,4.667,4.6682,4.6683,4.6723,4.6723,4.677,4.6771,0,0,0,0,0,0,0,0,0,0,0,4.667,4.667,4.667,4.6683,4.6723,4.6723,4.677,4.6741,0,0,0,0,0,0,0,0,0,0,4.6703,4.6691,4.667,4.667,4.6684,4.6723,4.6723,4.674,4.6743,4.6751,0,4.676,0,4.6766,4.6774,4.6774,0,0,0,4.6683,4.6688,4.67,4.667,4.6684,4.6723,4.6705,4.6741,4.6745,4.6755,4.676,4.6762,4.6767,4.6774,4.6774,4.6826,4.6827,0,0,4.6681,4.6676,4.6697,4.6702,4.6697,4.6704,4.6706,4.6744,4.6748,4.676,4.6763,4.6768,4.6774,4.6775,4.6826,4.6826,0,0,0,4.6675,4.6674,4.6685,4.67,4.6708,4.6705,4.6708,4.6746,4.675,4.6764,4.6768,4.6775,4.6775,4.6826,4.6826,4.6834,0,0,0,4.6674,4.6671,4.6684,4.6681,4.6707,4.6728,4.6709,4.6748,4.6752,4.6768,4.6775,4.6776,4.6826,4.6826,4.6833,4.6838,0,0,0,4.6667,4.667,4.6675,4.6681,4.6698,4.6727,4.6734,4.6749,4.6755,4.6774,4.6776,4.6825,4.6826,4.6833,4.6837,4.6851,0,0,0,4.6659,4.668,4.6675,4.6701,4.6698,4.6732,4.6733,4.6759,4.6776,4.6775,4.6826,4.6826,4.6832,4.6836,4.6851,4.6863,4.6867,0,0,4.6682,4.6682,4.6698,4.6695,4.673,4.6727,4.6762,4.6781,4.6787,4.6812,4.6814,4.6833,4.6837,4.6851,4.6894,4.6898,0,0,0,4.6704,4.6715,4.6725,4.6743,4.676,4.6775,4.679,4.6798,4.6821,4.6799,4.6842,4.6845,4.6853,4.6859,4.6862,4.687,4.6829,4.6829,4.6829,4.6728,4.6737,4.6763,4.6777,4.6794,4.6811,4.6825,4.6838,4.6839,4.685,4.6857,4.6883,4.689,4.6892,4.69,4.6864,4.6864,4.6864,4.6864,4.6764,4.6781,4.6786,4.6814,4.6823,4.6845,4.6863,4.6864,4.6885,4.6877,4.6885,4.6875,4.6896,4.6903,4.6865,4.6865,4.6865,4.6865,4.6865,4.6781,4.6791,4.6802,4.683,4.685,4.6862,4.6885,4.6891,4.6896,4.6904,4.6914,4.6914,4.6915,4.6909,4.6909,4.6909,4.6909,4.6909,4.6909,4.6794,4.6807,4.6825,4.6848,4.6861,4.6879,4.6898,4.691,4.6926,4.6928,4.6929,4.693,4.6896,4.6888,4.691,4.691,4.691,4.691,4.691,4.6828,4.6822,4.6851,4.6865,4.6892,4.6913,4.6921,4.6947,4.6958,4.6969,4.6969,4.6943,4.6943,4.6941,4.6934,4.6967,4.6967,4.6967,4.6967,4.6842,4.6844,4.6877,4.6898,4.692,4.6932,4.6964,4.6979,4.6993,4.7001,4.6997,4.6989,4.6986,4.6988,4.6984,4.6978,4.7021,4.7021,4.7021,4.6864,4.6868,4.6895,4.6912,4.6934,4.6953,4.6984,4.7008,4.7023,4.7024,4.7007,4.7005,4.6991,4.6986,4.6986,4.6981,4.697,0,0]}]]